Weather History for CYTZ - September, 2013

Change the Weather History Date:

Sunday, September 22, 2013

  Actual Average Record
Temperature  
Mean Temperature 52 °F -  
Max Temperature 56 °F 59 °F 78 °F (2007)
Min Temperature 48 °F 47 °F 41 °F (1999)
Degree Days  
Heating Degree Days 13    
Growing Degree Days 2 (Base 50)    
Moisture  
Dew Point 41 °F    
Average Humidity 67    
Maximum Humidity 82    
Minimum Humidity 45    
Precipitation  
Precipitation 0.00 in 0.08 in - ()
Sea Level Pressure  
Sea Level Pressure 29.93 in    
Wind  
Wind Speed 9 mph ()    
Max Wind Speed 18 mph    
Max Gust Speed 21 mph    
Visibility 9.1 miles    
Events      
Averages and records for this station are not official NWS values.
T = Trace of Precipitation, MM = Missing Value Source: Averaged Metar Reports

Daily Weather History Graph

Daily Weather History Graph

Search for Another Location

Airport or City:

Trip Planner

Search our weather history database for the weather conditions in past years. The results will help you decide how hot, cold, wet, or windy it might be!

Date:

Astronomy

Sep. 22, 2013 Rise Set
Actual Time 7:05 AM EDT 7:14 PM EDT
Civil Twilight 6:36 AM EDT 7:43 PM EDT
Nautical Twilight 6:02 AM EDT 8:16 PM EDT
Astronomical Twilight 5:28 AM EDT 8:50 PM EDT
Moon 8:55 PM EDT (9/22) 10:30 AM EDT (9/22)
Length of Visible Light 13h 06m
Length of Day
12h 09m
Waning Gibbous, 89% of the Moon is Illuminated
Sep 22
Waning Gibbous
Sep 26
Last Quarter
Oct 4
New
Oct 11
First Quarter
Oct 18
Full

Hourly Weather History & Observations

Time (EDT) Temp. Dew Point Humidity Pressure Visibility Wind Dir Wind Speed Gust Speed Precip Events Conditions
12:00 AM 53.6 °F 46.4 °F 77% 29.75 in 9.0 mi West 13.8 mph - N/A   Clear
1:00 AM 53.6 °F 46.4 °F 77% 29.77 in 9.0 mi West 8.1 mph - N/A   Scattered Clouds
2:00 AM 53 °F 45 °F 66% 29.78 in 10 mi WNW 6.9 mph - -   Overcast
2:00 AM 53.6 °F 44.6 °F 72% 29.78 in 9.0 mi WNW 5.8 mph - N/A   Overcast
3:00 AM 51.8 °F 44.6 °F 76% 29.79 in 9.0 mi North 10.4 mph - N/A   Overcast
4:00 AM 51.8 °F 44.6 °F 76% 29.79 in 9.0 mi WNW 10.4 mph - N/A   Overcast
5:00 AM 51.8 °F 42.8 °F 71% 29.82 in 9.0 mi NW 9.2 mph - N/A   Overcast
6:00 AM 50.0 °F 42.8 °F 76% 29.84 in 9.0 mi NW 10.4 mph - N/A   Overcast
7:00 AM 50.0 °F 42.8 °F 76% 29.85 in 9.0 mi NW 8.1 mph - N/A   Clear
8:00 AM 50 °F 44 °F 75% 29.88 in 10 mi NW 5.8 mph - -  
8:00 AM 50.0 °F 44.6 °F 82% 29.88 in 9.0 mi WNW 6.9 mph - N/A   Clear
9:00 AM 51.8 °F 42.8 °F 71% 29.90 in 9.0 mi WNW 11.5 mph - N/A   Mostly Cloudy
10:00 AM 51.8 °F 41.0 °F 67% 29.92 in 9.0 mi NW 10.4 mph - N/A   Scattered Clouds
11:00 AM 50.0 °F 42.8 °F 76% 29.94 in 9.0 mi North 5.8 mph - N/A   Overcast
11:03 AM 50.0 °F 42.8 °F 76% 29.94 in 9.0 mi North 5.8 mph - N/A   Mostly Cloudy
11:04 AM 50.0 °F 42.8 °F 76% 29.94 in 9.0 mi NNW 4.6 mph - N/A   Mostly Cloudy
11:18 AM 51.8 °F 42.8 °F 71% 29.95 in 9.0 mi NNW 3.5 mph - N/A   Overcast
11:20 AM 51.8 °F 41.0 °F 67% 29.95 in 9.0 mi WNW 4.6 mph - N/A   Overcast
11:34 AM 50.0 °F 41.0 °F 71% 29.95 in 9.0 mi North 9.2 mph - N/A   Overcast
11:50 AM 51.8 °F 42.8 °F 71% 29.96 in 9.0 mi NNW 5.8 mph - N/A   Overcast
11:59 AM 51.8 °F 41.0 °F 67% 29.96 in 9.0 mi NW 11.5 mph - N/A   Overcast
12:00 PM 51.8 °F 41.0 °F 67% 29.96 in 9.0 mi NNW 11.5 mph - N/A   Overcast
12:05 PM 51.8 °F 42.8 °F 71% 29.96 in 9.0 mi North 9.2 mph 17.3 mph N/A   Overcast
12:10 PM 51.8 °F 41.0 °F 67% 29.96 in 9.0 mi NW 13.8 mph - N/A   Overcast
12:11 PM 51.8 °F 41.0 °F 67% 29.96 in 9.0 mi WNW 15.0 mph - N/A   Overcast
12:22 PM 51.8 °F 41.0 °F 67% 29.96 in 9.0 mi NNW 8.1 mph 19.6 mph N/A   Overcast
12:26 PM 51.8 °F 41.0 °F 67% 29.96 in 9.0 mi NW 10.4 mph 17.3 mph N/A   Overcast
12:29 PM 51.8 °F 41.0 °F 67% 29.96 in 9.0 mi NNW 11.5 mph 17.3 mph N/A   Overcast
12:33 PM 50.0 °F 41.0 °F 71% 29.96 in 9.0 mi NNW 13.8 mph 20.7 mph N/A   Overcast
1:00 PM 53.6 °F 41.0 °F 62% 29.96 in 9.0 mi WNW 16.1 mph - N/A   Overcast
2:00 PM 53 °F 38 °F 46% 29.97 in 10 mi NNW 13.8 mph - -  
2:00 PM 53.6 °F 37.4 °F 54% 29.96 in 9.0 mi NNW 18.4 mph - N/A   Mostly Cloudy
3:00 PM 53.6 °F 39.2 °F 58% 29.96 in 9.0 mi WNW 12.7 mph 19.6 mph N/A   Overcast
4:00 PM 55.4 °F 37.4 °F 51% 29.96 in 9.0 mi WNW 12.7 mph - N/A   Mostly Cloudy
5:00 PM 55.4 °F 37.4 °F 51% 29.97 in 9.0 mi WNW 11.5 mph 18.4 mph N/A   Overcast
6:00 PM 53.6 °F 37.4 °F 54% 29.99 in 9.0 mi NW 9.2 mph 17.3 mph N/A   Overcast
7:00 PM 53.6 °F 37.4 °F 54% 30.01 in 9.0 mi WNW 13.8 mph - N/A   Overcast
8:00 PM 52 °F 37 °F 45% 30.03 in 10 mi NNW 8.1 mph - -  
8:00 PM 51.8 °F 37.4 °F 58% 30.03 in 9.0 mi NW 8.1 mph - N/A   Mostly Cloudy
9:00 PM 51.8 °F 37.4 °F 58% 30.05 in 9.0 mi NW 5.8 mph - N/A   Overcast
10:00 PM 51.8 °F 39.2 °F 62% 30.06 in 9.0 mi NW 6.9 mph - N/A   Overcast
11:00 PM 51.8 °F 39.2 °F 62% 30.07 in 9.0 mi NW 5.8 mph - N/A   Overcast